Location: Byszew
(52.1813°N, 19.2693°E)
Time: 01:02:09
(UTC+00:00)

Envisat - Pass Details

Date: 28 January 2022
Orbit: 764 x 765 km, 98.2° (Epoch: 22 May)

Event Time Altitude Azimuth Distance (km) Brightness Sun altitude
Rises 03:01:03 0° 20° (NNE) 3,244 6.6 -31.8°
Reaches altitude 10° 03:03:33 10° 29° (NNE) 2,313 5.9 -31.4°
Maximum altitude 03:08:14 36° 96° (E) 1,198 4.4 -30.7°
Drops below altitude 10° 03:12:54 10° 162° (SSE) 2,298 5.5 -30.0°
Sets 03:15:22 0° 171° (S) 3,220 6.2 -29.6°
